,,Stat6,,Stat2,,Stat8,,Stat9,,Stat10,,Wind1,,Wind1,
time,status,PA1M_AVG,status,PR1M_SUM,status,RH1M_AVG,status,SR1M_AVG,status,TA1M_AVG,status,W1dAve1m,status,W1sAve1m,
2005-04-15, 00:00:00,VALID,920.999,VALID,0,VALID,99.6353,VALID,-0.0509425,VALID,18.3239,VALID,326,VALID,0.369913,
2005-04-15, 00:01:00,VALID,921.003,VALID,0,VALID,99.8756,VALID,-0.0679233,VALID,18.2974,VALID,326,VALID,0.228299,
2005-04-15, 00:02:00,VALID,921.006,VALID,0,VALID,99.973,VALID,-0.0849042,VALID,18.2981,VALID,312,VALID,0.408668,
2005-04-15, 00:03:00,VALID,921.012,VALID,0,VALID,99.9886,VALID,-0.0509425,VALID,18.2591,VALID,177,VALID,0.465892,
2005-04-15, 00:04:00,VALID,921.015,VALID,0,VALID,100,VALID,-0.0679233,VALID,18.2432,VALID,177,VALID,0.415039,
2005-04-15, 00:05:00,VALID,921.002,VALID,0,VALID,100,VALID,-0.0509425,VALID,18.2171,VALID,177,VALID,0.337984,
2005-04-15, 00:06:00,VALID,921.004,VALID,0,VALID,100,VALID,-0.0339617,VALID,18.2008,VALID,177,VALID,0.40434,
2005-04-15, 00:07:00,VALID,920.991,VALID,0,VALID,100,VALID,-0.0169808,VALID,18.1881,VALID,177,VALID,0.344122,
2005-04-15, 00:08:00,VALID,920.973,VALID,0,VALID,100,VALID,-0.0169808,VALID,18.1881,VALID,177,VALID,0.0273438,
2005-04-15, 00:09:00,VALID,920.973,VALID,0,VALID,100,VALID,0,VALID,18.1846,VALID,177,VALID,0.0209517,
2005-04-15, 00:10:00,VALID,920.946,VALID,0,VALID,100,VALID,0,VALID,18.1911,VALID,177,VALID,0.00279018,
2005-04-15, 00:11:00,VALID,920.936,VALID,0,VALID,100,VALID,-0.0169808,VALID,18.1816,VALID,177,VALID,0,
2005-04-15, 00:12:00,VALID,920.926,VALID,0,VALID,100,VALID,-0.0339617,VALID,18.1881,VALID,177,VALID,0.0649771,
2005-04-15, 00:13:00,VALID,920.92,VALID,0,VALID,100,VALID,-0.0339617,VALID,18.1685,VALID,177,VALID,0.0746528,
2005-04-15, 00:14:00,VALID,920.899,VALID,0,VALID,100,VALID,-0.0169808,VALID,18.1528,VALID,177,VALID,0.0215774,
2005-04-15, 00:15:00,VALID,920.881,VALID,0,VALID,100,VALID,-0.0509425,VALID,18.1595,VALID,177,VALID,0,
2005-04-15, 00:16:00,VALID,920.862,VALID,0,VALID,100,VALID,0,VALID,18.1461,VALID,177,VALID,0.0301847,
2005-04-15, 00:17:00,VALID,920.838,VALID,0,VALID,100,VALID,-0.0169808,VALID,18.1427,VALID,177,VALID,0.182106,
2005-04-15, 00:18:00,VALID,920.828,VALID,0,VALID,100,VALID,0,VALID,18.166,VALID,177,VALID,0.152253,
2005-04-15, 00:19:00,VALID,920.823,VALID,0,VALID,100,VALID,-0.0339617,VALID,18.1627,VALID,177,VALID,0.172602,
2005-04-15, 00:20:00,VALID,920.815,VALID,0,VALID,100,VALID,0,VALID,18.1593,VALID,177,VALID,0.149164,
2005-04-15, 00:21:00,VALID,920.817,VALID,0,VALID,100,VALID,-0.0169808,VALID,18.1427,VALID,177,VALID,0.138021,
2005-04-15, 00:22:00,VALID,920.831,VALID,0,VALID,100,VALID,-0.0169808,VALID,18.1097,VALID,177,VALID,0.234003,
2005-04-15, 00:23:00,VALID,920.819,VALID,0,VALID,100,VALID,-0.0169808,VALID,18.1037,VALID,177,VALID,0.286272,
2005-04-15, 00:24:00,VALID,920.827,VALID,0,VALID,100,VALID,-0.0169808,VALID,18.085,VALID,113,VALID,0.457617,
2005-04-15, 00:25:00,VALID,920.824,VALID,0,VALID,100,VALID,0,VALID,18.0422,VALID,108,VALID,0.513263,
2005-04-15, 00:26:00,VALID,920.819,VALID,0,VALID,100,VALID,-0.0169808,VALID,18.0106,VALID,61,VALID,0.725142,
2005-04-15, 00:27:00,VALID,920.824,VALID,0,VALID,100,VALID,-0.0169808,VALID,17.9818,VALID,42,VALID,0.74314,
2005-04-15, 00:28:00,VALID,920.813,VALID,0,VALID,100,VALID,-0.0169808,VALID,17.9488,VALID,42,VALID,0.833519,
2005-04-15, 00:29:00,VALID,920.802,VALID,0,VALID,100,VALID,-0.0169808,VALID,17.9559,VALID,45,VALID,0.846608,
2005-04-15, 00:30:00,VALID,920.78,VALID,0,VALID,100,VALID,-0.0509425,VALID,17.9363,VALID,53,VALID,0.793341,
2005-04-15, 00:31:00,VALID,920.767,VALID,0,VALID,100,VALID,-0.0169808,VALID,17.9068,VALID,65,VALID,0.774966,
2005-04-15, 00:32:00,VALID,920.744,VALID,0,VALID,100,VALID,0,VALID,17.8972,VALID,65,VALID,0.871652,
2005-04-15, 00:33:00,VALID,920.717,VALID,0,VALID,100,VALID,-0.0169808,VALID,17.9075,VALID,65,VALID,0.893003,
2005-04-15, 00:34:00,VALID,920.7,VALID,0,VALID,100,VALID,0,VALID,17.9131,VALID,70,VALID,0.762835,
2005-04-15, 00:35:00,VALID,920.682,VALID,0,VALID,100,VALID,0,VALID,17.9465,VALID,75,VALID,0.740412,
2005-04-15, 00:36:00,VALID,920.67,VALID,0,VALID,99.9112,VALID,0,VALID,17.9624,VALID,77,VALID,0.693266,
2005-04-15, 00:37:00,VALID,920.665,VALID,0,VALID,99.7675,VALID,0,VALID,17.9783,VALID,92,VALID,0.87934,
2005-04-15, 00:38:00,VALID,920.66,VALID,0,VALID,99.6747,VALID,0,VALID,17.9947,VALID,95,VALID,0.985978,
2005-04-15, 00:39:00,VALID,920.655,VALID,0,VALID,99.5819,VALID,-0.0339617,VALID,18.0069,VALID,95,VALID,0.730035,
2005-04-15, 00:40:00,VALID,920.66,VALID,0,VALID,99.4547,VALID,-0.0169808,VALID,18.0297,VALID,95,VALID,0.980378,
2005-04-15, 00:41:00,VALID,920.639,VALID,0,VALID,99.3721,VALID,-0.0339617,VALID,18.0493,VALID,80,VALID,0.884115,
2005-04-15, 00:42:00,VALID,920.633,VALID,0,VALID,99.2932,VALID,-0.0339617,VALID,18.0624,VALID,79,VALID,1.0754,
2005-04-15, 00:43:00,VALID,920.616,VALID,0,VALID,99.1801,VALID,-0.0339617,VALID,18.0525,VALID,82,VALID,1.13499,
2005-04-15, 00:44:00,VALID,920.589,VALID,0,VALID,99.1381,VALID,-0.0169808,VALID,18.0334,VALID,86,VALID,1.24535,
2005-04-15, 00:45:00,VALID,920.55,VALID,0,VALID,99.0898,VALID,-0.0339617,VALID,18.0011,VALID,86,VALID,1.26023,
2005-04-15, 00:46:00,VALID,920.546,VALID,0,VALID,99.0885,VALID,0,VALID,17.9723,VALID,91,VALID,1.23456,
2005-04-15, 00:47:00,VALID,920.541,VALID,0,VALID,99.1546,VALID,-0.0169808,VALID,17.9564,VALID,92,VALID,1.12589,
2005-04-15, 00:48:00,VALID,920.523,VALID,0,VALID,99.2818,VALID,-0.0169808,VALID,17.9269,VALID,93,VALID,1.10193,
2005-04-15, 00:49:00,VALID,920.508,VALID,0,VALID,99.3962,VALID,-0.0509425,VALID,17.9041,VALID,113,VALID,1.16648,
2005-04-15, 00:50:00,VALID,920.505,VALID,0,VALID,99.5387,VALID,-0.0849042,VALID,17.9008,VALID,123,VALID,0.866815,
2005-04-15, 00:51:00,VALID,920.5,VALID,0,VALID,99.6646,VALID,-0.0339617,VALID,17.881,VALID,136,VALID,1.38212,
2005-04-15, 00:52:00,VALID,920.488,VALID,0,VALID,99.7345,VALID,-0.0339617,VALID,17.8909,VALID,133,VALID,1.20694,
2005-04-15, 00:53:00,VALID,920.481,VALID,0,VALID,99.7981,VALID,-0.0679233,VALID,17.8849,VALID,137,VALID,1.19085,
2005-04-15, 00:54:00,VALID,920.475,VALID,0,VALID,99.9062,VALID,-0.0339617,VALID,17.875,VALID,132,VALID,1.19695,
2005-04-15, 00:55:00,VALID,920.461,VALID,0,VALID,99.9977,VALID,-0.0849042,VALID,17.8879,VALID,124,VALID,0.954127,
2005-04-15, 00:56:00,VALID,920.458,VALID,0,VALID,100,VALID,-0.0679233,VALID,17.8978,VALID,133,VALID,1.25818,
2005-04-15, 00:57:00,VALID,920.438,VALID,0,VALID,100,VALID,-0.0849042,VALID,17.9043,VALID,121,VALID,1.02834,
2005-04-15, 00:58:00,VALID,920.429,VALID,0,VALID,100,VALID,-0.0339617,VALID,17.9209,VALID,109,VALID,1.15737,
2005-04-15, 00:59:00,VALID,920.436,VALID,0,VALID,100,VALID,-0.0679233,VALID,17.9045,VALID,94,VALID,1.07106,
2005-04-15, 01:00:00,VALID,920.413,VALID,0,VALID,100,VALID,-0.0509425,VALID,17.9041,VALID,98,VALID,1.35026,
2005-04-15, 01:01:00,VALID,920.418,VALID,0,VALID,100,VALID,-0.0679233,VALID,17.8946,VALID,98,VALID,1.33891,
2005-04-15, 01:02:00,VALID,920.405,VALID,0,VALID,100,VALID,-0.0509425,VALID,17.9082,VALID,97,VALID,1.00908,
2005-04-15, 01:03:00,VALID,920.392,VALID,0,VALID,100,VALID,-0.0509425,VALID,17.8976,VALID,120,VALID,0.988095,
2005-04-15, 01:04:00,VALID,920.368,VALID,0,VALID,100,VALID,0.0169808,VALID,17.8974,VALID,127,VALID,0.988839,
2005-04-15, 01:05:00,VALID,920.349,VALID,0,VALID,100,VALID,0.0849042,VALID,17.893,VALID,119,VALID,1.01799,
2005-04-15, 01:06:00,VALID,920.332,VALID,0,VALID,100,VALID,0.0849042,VALID,17.8868,VALID,108,VALID,0.904297,
2005-04-15, 01:07:00,VALID,920.305,VALID,0,VALID,100,VALID,0.0679233,VALID,17.89,VALID,106,VALID,1.24386,
2005-04-15, 01:08:00,VALID,920.264,VALID,0,VALID,100,VALID,0.101885,VALID,17.8737,VALID,108,VALID,1.42383,
2005-04-15, 01:09:00,VALID,920.229,VALID,0,VALID,100,VALID,0.0339617,VALID,17.8774,VALID,113,VALID,1.35476,
2005-04-15, 01:10:00,VALID,920.18,VALID,0,VALID,100,VALID,0.0339617,VALID,17.8771,VALID,111,VALID,1.2521,
2005-04-15, 01:11:00,VALID,920.121,VALID,0,VALID,100,VALID,0.0849042,VALID,17.8704,VALID,116,VALID,1.13356,
2005-04-15, 01:12:00,VALID,920.075,VALID,0,VALID,100,VALID,0.0509425,VALID,17.8873,VALID,116,VALID,1.16611,
2005-04-15, 01:13:00,VALID,920.022,VALID,0,VALID,100,VALID,0.0509425,VALID,17.8868,VALID,126,VALID,0.851944,
2005-04-15, 01:14:00,VALID,919.957,VALID,0,VALID,100,VALID,0.0169808,VALID,17.8868,VALID,118,VALID,1.14425,
2005-04-15, 01:15:00,VALID,919.906,VALID,0,VALID,100,VALID,0.101885,VALID,17.893,VALID,115,VALID,0.983631,
2005-04-15, 01:16:00,VALID,919.872,VALID,0,VALID,100,VALID,0.0679233,VALID,17.8935,VALID,124,VALID,1.25236,
2005-04-15, 01:17:00,VALID,919.834,VALID,0,VALID,100,VALID,0.0849042,VALID,17.893,VALID,119,VALID,1.08333,
2005-04-15, 01:18:00,VALID,919.802,VALID,0,VALID,100,VALID,0.0509425,VALID,17.8804,VALID,111,VALID,1.17264,
2005-04-15, 01:19:00,VALID,919.766,VALID,0,VALID,100,VALID,0.0339617,VALID,17.8709,VALID,110,VALID,1.13467,
2005-04-15, 01:20:00,VALID,919.737,VALID,0,VALID,100,VALID,-0.0339617,VALID,17.8718,VALID,129,VALID,1.17511,
2005-04-15, 01:21:00,VALID,919.701,VALID,0,VALID,100,VALID,-0.0339617,VALID,17.8554,VALID,103,VALID,1.21058,
2005-04-15, 01:22:00,VALID,919.681,VALID,0,VALID,100,VALID,-0.0679233,VALID,17.8686,VALID,111,VALID,0.746951,
2005-04-15, 01:23:00,VALID,919.648,VALID,0,VALID,100,VALID,-0.0169808,VALID,17.8623,VALID,127,VALID,1.24358,
2005-04-15, 01:24:00,VALID,919.637,VALID,0,VALID,100,VALID,-0.0169808,VALID,17.8554,VALID,112,VALID,1.2468,
2005-04-15, 01:25:00,VALID,919.615,VALID,0,VALID,100,VALID,-0.0339617,VALID,17.8589,VALID,124,VALID,1.02271,
2005-04-15, 01:26:00,VALID,919.612,VALID,0,VALID,100,VALID,-0.0679233,VALID,17.8591,VALID,112,VALID,0.8879,
2005-04-15, 01:27:00,VALID,919.595,VALID,0,VALID,100,VALID,-0.0339617,VALID,17.8552,VALID,101,VALID,1.0657,
2005-04-15, 01:28:00,VALID,919.591,VALID,0,VALID,100,VALID,0,VALID,17.8522,VALID,109,VALID,0.868331,
2005-04-15, 01:29:00,VALID,919.572,VALID,0,VALID,99.8604,VALID,-0.0169808,VALID,17.8554,VALID,112,VALID,1.35738,
2005-04-15, 01:30:00,VALID,919.557,VALID,0,VALID,99.6684,VALID,-0.0509425,VALID,17.8589,VALID,110,VALID,1.1875,
2005-04-15, 01:31:00,VALID,919.522,VALID,0,VALID,99.5692,VALID,-0.0509425,VALID,17.8653,VALID,96,VALID,1.24566,
2005-04-15, 01:32:00,VALID,919.51,VALID,0,VALID,99.5616,VALID,-0.0509425,VALID,17.8656,VALID,94,VALID,1.03335,
2005-04-15, 01:33:00,VALID,919.488,VALID,0,VALID,99.5603,VALID,-0.0679233,VALID,17.8722,VALID,90,VALID,0.995427,
2005-04-15, 01:34:00,VALID,919.469,VALID,0,VALID,99.4789,VALID,-0.0509425,VALID,17.8656,VALID,80,VALID,1.11033,
2005-04-15, 01:35:00,VALID,919.46,VALID,0,VALID,99.4598,VALID,-0.0339617,VALID,17.8591,VALID,91,VALID,0.952148,
2005-04-15, 01:36:00,VALID,919.457,VALID,0,VALID,99.3734,VALID,-0.0509425,VALID,17.8623,VALID,109,VALID,0.820494,
2005-04-15, 01:37:00,VALID,919.458,VALID,0,VALID,99.3174,VALID,-0.0679233,VALID,17.8561,VALID,108,VALID,0.64707,
2005-04-15, 01:38:00,VALID,919.459,VALID,0,VALID,99.2805,VALID,-0.0679233,VALID,17.8494,VALID,114,VALID,0.497692,
2005-04-15, 01:39:00,VALID,919.458,VALID,0,VALID,99.2119,VALID,-0.0339617,VALID,17.8494,VALID,130,VALID,0.644622,
2005-04-15, 01:40:00,VALID,919.462,VALID,0,VALID,99.1457,VALID,-0.0849042,VALID,17.8559,VALID,142,VALID,0.409339,
2005-04-15, 01:41:00,VALID,919.461,VALID,0,VALID,99.1394,VALID,-0.0679233,VALID,17.8819,VALID,142,VALID,0.278963,
2005-04-15, 01:42:00,VALID,919.446,VALID,0,VALID,99.0961,VALID,-0.0339617,VALID,17.8877,VALID,134,VALID,0.318216,
2005-04-15, 01:43:00,VALID,919.427,VALID,0,VALID,99.072,VALID,-0.0339617,VALID,17.8951,VALID,130,VALID,0.33505,
2005-04-15, 01:44:00,VALID,919.4,VALID,0,VALID,99.1381,VALID,-0.0339617,VALID,17.8946,VALID,101,VALID,0.59392,
2005-04-15, 01:45:00,VALID,919.377,VALID,0,VALID,98.9931,VALID,-0.0169808,VALID,17.8879,VALID,97,VALID,0.833757,
2005-04-15, 01:46:00,VALID,919.337,VALID,0,VALID,98.9461,VALID,-0.0169808,VALID,17.8619,VALID,105,VALID,0.801525,
2005-04-15, 01:47:00,VALID,919.316,VALID,0,VALID,98.9804,VALID,-0.0509425,VALID,17.846,VALID,122,VALID,0.835211,
2005-04-15, 01:48:00,VALID,919.295,VALID,0,VALID,99.0631,VALID,-0.0339617,VALID,17.8527,VALID,134,VALID,0.769444,
2005-04-15, 01:49:00,VALID,919.284,VALID,0,VALID,99.0224,VALID,0,VALID,17.8557,VALID,144,VALID,0.918527,
2005-04-15, 01:50:00,VALID,919.273,VALID,0,VALID,98.913,VALID,0,VALID,17.8587,VALID,130,VALID,1.08242,
2005-04-15, 01:51:00,VALID,919.269,VALID,0,VALID,98.6994,VALID,0,VALID,17.8815,VALID,145,VALID,1.34975,
2005-04-15, 01:52:00,VALID,919.261,VALID,0,VALID,98.5862,VALID,0,VALID,17.8974,VALID,121,VALID,1.10957,
2005-04-15, 01:53:00,VALID,919.258,VALID,0,VALID,98.5252,VALID,0,VALID,17.9207,VALID,123,VALID,1.00645,
2005-04-15, 01:54:00,VALID,919.261,VALID,0,VALID,98.5417,VALID,-0.0169808,VALID,17.9237,VALID,110,VALID,0.948103,
2005-04-15, 01:55:00,VALID,919.262,VALID,0,VALID,98.4629,VALID,-0.0509425,VALID,17.9138,VALID,113,VALID,1.20536,
2005-04-15, 01:56:00,VALID,919.266,VALID,0,VALID,98.4349,VALID,0,VALID,17.9138,VALID,98,VALID,1.13192,
2005-04-15, 01:57:00,VALID,919.267,VALID,0,VALID,98.571,VALID,0,VALID,17.917,VALID,72,VALID,0.908346,
2005-04-15, 01:58:00,VALID,919.263,VALID,0,VALID,98.6447,VALID,-0.0169808,VALID,17.9138,VALID,90,VALID,0.881546,
2005-04-15, 01:59:00,VALID,919.254,VALID,0,VALID,98.6536,VALID,0,VALID,17.881,VALID,107,VALID,0.711483,
2005-04-15, 02:00:00,VALID,919.248,VALID,0,VALID,98.6994,VALID,-0.0339617,VALID,17.8882,VALID,154,VALID,0.775484,
2005-04-15, 02:01:00,VALID,919.253,VALID,0,VALID,98.7007,VALID,0,VALID,17.881,VALID,153,VALID,0.991071,
2005-04-15, 02:02:00,VALID,919.251,VALID,0,VALID,98.6663,VALID,0,VALID,17.9013,VALID,145,VALID,1.37517,
2005-04-15, 02:03:00,VALID,919.242,VALID,0,VALID,98.4858,VALID,0,VALID,17.9075,VALID,149,VALID,1.04088,
2005-04-15, 02:04:00,VALID,919.249,VALID,0,VALID,98.3344,VALID,0,VALID,17.9237,VALID,142,VALID,1.07459,
2005-04-15, 02:05:00,VALID,919.258,VALID,0,VALID,98.1132,VALID,0,VALID,17.9428,VALID,140,VALID,1.13783,
2005-04-15, 02:06:00,VALID,919.274,VALID,0,VALID,97.9352,VALID,0,VALID,17.9654,VALID,127,VALID,0.981357,
2005-04-15, 02:07:00,VALID,919.299,VALID,0,VALID,97.7177,VALID,0.0169808,VALID,17.988,VALID,125,VALID,0.648065,
2005-04-15, 02:08:00,VALID,919.303,VALID,0,VALID,97.7152,VALID,0.0169808,VALID,18.0076,VALID,116,VALID,0.406641,
2005-04-15, 02:09:00,VALID,919.318,VALID,0,VALID,97.5524,VALID,0,VALID,18.0078,VALID,124,VALID,0.533594,
2005-04-15, 02:10:00,VALID,919.338,VALID,0,VALID,97.5537,VALID,0,VALID,18.0108,VALID,121,VALID,0.301562,
2005-04-15, 02:11:00,VALID,919.329,VALID,0,VALID,97.4342,VALID,-0.0169808,VALID,18.0175,VALID,123,VALID,0.371185,
2005-04-15, 02:12:00,VALID,919.318,VALID,0,VALID,97.3032,VALID,-0.0509425,VALID,18.0076,VALID,123,VALID,0.248095,
2005-04-15, 02:13:00,VALID,919.302,VALID,0,VALID,97.2879,VALID,0,VALID,18.0272,VALID,123,VALID,0.256479,
2005-04-15, 02:14:00,VALID,919.258,VALID,0,VALID,97.2625,VALID,-0.0169808,VALID,18.023,VALID,118,VALID,0.505451,
2005-04-15, 02:15:00,VALID,919.233,VALID,0,VALID,97.2968,VALID,-0.0169808,VALID,18.0364,VALID,54,VALID,0.888672,
2005-04-15, 02:16:00,VALID,919.193,VALID,0,VALID,96.9853,VALID,-0.0169808,VALID,18.0401,VALID,59,VALID,1.25109,
2005-04-15, 02:17:00,VALID,919.16,VALID,0,VALID,96.5161,VALID,0.0169808,VALID,18.0426,VALID,73,VALID,1.38681,
2005-04-15, 02:18:00,VALID,919.123,VALID,0,VALID,96.3584,VALID,-0.0169808,VALID,18.0588,VALID,67,VALID,1.28107,
2005-04-15, 02:19:00,VALID,919.092,VALID,0,VALID,96.3533,VALID,0,VALID,18.059,VALID,80,VALID,1.04557,
2005-04-15, 02:20:00,VALID,919.059,VALID,0,VALID,96.5428,VALID,0,VALID,18.0562,VALID,76,VALID,0.944586,
2005-04-15, 02:21:00,VALID,919.038,VALID,0,VALID,96.5453,VALID,0,VALID,18.014,VALID,85,VALID,1.29124,
2005-04-15, 02:22:00,VALID,918.995,VALID,0,VALID,96.6941,VALID,0,VALID,17.9845,VALID,84,VALID,1.54601,
2005-04-15, 02:23:00,VALID,918.962,VALID,0,VALID,96.8352,VALID,0,VALID,17.9783,VALID,82,VALID,1.66947,
2005-04-15, 02:24:00,VALID,918.913,VALID,0,VALID,97.0501,VALID,-0.0169808,VALID,17.9686,VALID,81,VALID,1.43659,
2005-04-15, 02:25:00,VALID,918.883,VALID,0,VALID,97.3884,VALID,0,VALID,17.9557,VALID,76,VALID,1.61458,
2005-04-15, 02:26:00,VALID,918.852,VALID,0,VALID,97.8271,VALID,0,VALID,17.9068,VALID,69,VALID,1.30487,
2005-04-15, 02:27:00,VALID,918.806,VALID,0,VALID,98.1526,VALID,0,VALID,17.8817,VALID,69,VALID,1.39025,
2005-04-15, 02:28:00,VALID,918.783,VALID,0,VALID,98.4934,VALID,-0.0169808,VALID,17.8333,VALID,72,VALID,1.74077,
2005-04-15, 02:29:00,VALID,918.759,VALID,0,VALID,98.8456,VALID,-0.0169808,VALID,17.7844,VALID,103,VALID,1.73547,
2005-04-15, 02:30:00,VALID,918.761,VALID,0,VALID,99.1406,VALID,-0.0339617,VALID,17.7591,VALID,110,VALID,1.75018,
2005-04-15, 02:31:00,VALID,918.765,VALID,0,VALID,99.3835,VALID,0,VALID,17.7231,VALID,111,VALID,1.54088,
2005-04-15, 02:32:00,VALID,918.775,VALID,0,VALID,99.601,VALID,0,VALID,17.7107,VALID,117,VALID,0.9375,
2005-04-15, 02:33:00,VALID,918.779,VALID,0,VALID,99.7396,VALID,-0.0509425,VALID,17.6883,VALID,81,VALID,0.649891,
2005-04-15, 02:34:00,VALID,918.773,VALID,0,VALID,99.8527,VALID,-0.0339617,VALID,17.6816,VALID,106,VALID,0.668064,
2005-04-15, 02:35:00,VALID,918.743,VALID,0,VALID,99.9695,VALID,-0.0169808,VALID,17.6657,VALID,115,VALID,0.388529,
2005-04-15, 02:36:00,VALID,918.717,VALID,0,VALID,100,VALID,0,VALID,17.6653,VALID,118,VALID,0.0689787,
2005-04-15, 02:37:00,VALID,918.704,VALID,0,VALID,100,VALID,-0.0339617,VALID,17.6685,VALID,118,VALID,0.274414,
2005-04-15, 02:38:00,VALID,918.681,VALID,0,VALID,100,VALID,-0.0339617,VALID,17.6687,VALID,118,VALID,0.180804,
2005-04-15, 02:39:00,VALID,918.672,VALID,0,VALID,100,VALID,-0.0169808,VALID,17.6717,VALID,118,VALID,0.344122,
2005-04-15, 02:40:00,VALID,918.669,VALID,0,VALID,100,VALID,0,VALID,17.6851,VALID,118,VALID,0.269431,
2005-04-15, 02:41:00,VALID,918.679,VALID,0,VALID,100,VALID,-0.0169808,VALID,17.7044,VALID,118,VALID,0.159412,
2005-04-15, 02:42:00,VALID,918.661,VALID,0,VALID,100,VALID,0,VALID,17.6911,VALID,132,VALID,0.479106,
2005-04-15, 02:43:00,VALID,918.649,VALID,0,VALID,100,VALID,0.0169808,VALID,17.6749,VALID,143,VALID,0.655895,
2005-04-15, 02:44:00,VALID,918.651,VALID,0,VALID,100,VALID,0,VALID,17.662,VALID,141,VALID,0.925959,
2005-04-15, 02:45:00,VALID,918.632,VALID,0,VALID,100,VALID,0,VALID,17.6459,VALID,137,VALID,0.993253,
2005-04-15, 02:46:00,VALID,918.634,VALID,0,VALID,100,VALID,0,VALID,17.6229,VALID,139,VALID,0.834449,
2005-04-15, 02:47:00,VALID,918.647,VALID,0,VALID,100,VALID,-0.0169808,VALID,17.6201,VALID,137,VALID,0.819149,
2005-04-15, 02:48:00,VALID,918.661,VALID,0,VALID,100,VALID,-0.0169808,VALID,17.6138,VALID,137,VALID,0.380809,
2005-04-15, 02:49:00,VALID,918.684,VALID,0,VALID,100,VALID,0.0169808,VALID,17.6134,VALID,137,VALID,0.201562,
2005-04-15, 02:50:00,VALID,918.708,VALID,0,VALID,100,VALID,0.0849042,VALID,17.6058,VALID,137,VALID,0.294876,
2005-04-15, 02:51:00,VALID,918.698,VALID,0,VALID,100,VALID,0.0849042,VALID,17.6157,VALID,137,VALID,0.300145,
2005-04-15, 02:52:00,VALID,918.685,VALID,0,VALID,100,VALID,0.0679233,VALID,17.6127,VALID,138,VALID,0.570871,
2005-04-15, 02:53:00,VALID,918.667,VALID,0,VALID,100,VALID,0.0849042,VALID,17.6125,VALID,138,VALID,0.655664,
2005-04-15, 02:54:00,VALID,918.628,VALID,0,VALID,99.9941,VALID,0.101885,VALID,17.5863,VALID,138,VALID,0.77753,
2005-04-15, 02:55:00,VALID,918.599,VALID,0,VALID,99.9608,VALID,0.101885,VALID,17.5899,VALID,142,VALID,1.09811,
2005-04-15, 02:56:00,VALID,918.578,VALID,0,VALID,99.9151,VALID,0.0849042,VALID,17.5863,VALID,155,VALID,1.24913,
2005-04-15, 02:57:00,VALID,918.555,VALID,0,VALID,99.7943,VALID,0.0509425,VALID,17.6134,VALID,160,VALID,1.36604,
2005-04-15, 02:58:00,VALID,918.541,VALID,0,VALID,99.6989,VALID,0.101885,VALID,17.6157,VALID,158,VALID,0.958939,
2005-04-15, 02:59:00,VALID,918.545,VALID,0,VALID,99.6544,VALID,0.101885,VALID,17.6121,VALID,156,VALID,1.13663,
2005-04-15, 03:00:00,VALID,918.528,VALID,0,VALID,99.6378,VALID,0.101885,VALID,17.6215,VALID,147,VALID,1.16797,
2005-04-15, 03:01:00,VALID,918.517,VALID,0,VALID,99.765,VALID,0.0849042,VALID,17.6289,VALID,144,VALID,1.56731,
2005-04-15, 03:02:00,VALID,918.521,VALID,0,VALID,99.8858,VALID,0.0849042,VALID,17.6254,VALID,131,VALID,1.16335,
2005-04-15, 03:03:00,VALID,918.535,VALID,0,VALID,99.9855,VALID,0.118866,VALID,17.6256,VALID,138,VALID,1.24829,
2005-04-15, 03:04:00,VALID,918.535,VALID,0,VALID,100,VALID,0.0339617,VALID,17.5934,VALID,126,VALID,0.912109,
2005-04-15, 03:05:00,VALID,918.55,VALID,0,VALID,100,VALID,-0.0169808,VALID,17.5848,VALID,123,VALID,1.16388,
2005-04-15, 03:06:00,VALID,918.564,VALID,0,VALID,100,VALID,0.0169808,VALID,17.5717,VALID,128,VALID,1.00586,
2005-04-15, 03:07:00,VALID,918.568,VALID,0,VALID,100,VALID,0.0169808,VALID,17.5654,VALID,132,VALID,1.09261,
2005-04-15, 03:08:00,VALID,918.572,VALID,0,VALID,100,VALID,-0.0169808,VALID,17.5594,VALID,125,VALID,1.06765,
2005-04-15, 03:09:00,VALID,918.587,VALID,0,VALID,100,VALID,0,VALID,17.5585,VALID,119,VALID,0.740916,
2005-04-15, 03:10:00,VALID,918.587,VALID,0,VALID,99.983,VALID,0,VALID,17.5648,VALID,115,VALID,0.941406,
2005-04-15, 03:11:00,VALID,918.592,VALID,0,VALID,99.8807,VALID,0,VALID,17.5878,VALID,130,VALID,1.50705,
2005-04-15, 03:12:00,VALID,918.575,VALID,0,VALID,99.7319,VALID,-0.0169808,VALID,17.6332,VALID,125,VALID,1.57895,
2005-04-15, 03:13:00,VALID,918.568,VALID,0,VALID,99.5361,VALID,0,VALID,17.6689,VALID,125,VALID,1.34286,
2005-04-15, 03:14:00,VALID,918.577,VALID,0,VALID,99.4369,VALID,0,VALID,17.6848,VALID,113,VALID,0.992374,
2005-04-15, 03:15:00,VALID,918.579,VALID,0,VALID,99.4369,VALID,0,VALID,17.6851,VALID,125,VALID,1.10366,
2005-04-15, 03:16:00,VALID,918.597,VALID,0,VALID,99.4814,VALID,0.0169808,VALID,17.6749,VALID,116,VALID,1.28555,
2005-04-15, 03:17:00,VALID,918.597,VALID,0,VALID,99.5488,VALID,-0.0169808,VALID,17.6653,VALID,107,VALID,1.35192,
2005-04-15, 03:18:00,VALID,918.603,VALID,0,VALID,99.662,VALID,0,VALID,17.6491,VALID,107,VALID,1.06126,
2005-04-15, 03:19:00,VALID,918.621,VALID,0,VALID,99.7103,VALID,0,VALID,17.6496,VALID,105,VALID,1.30687,
2005-04-15, 03:20:00,VALID,918.645,VALID,0,VALID,99.7803,VALID,0,VALID,17.6267,VALID,130,VALID,0.839433,
2005-04-15, 03:21:00,VALID,918.651,VALID,0,VALID,99.9087,VALID,-0.0169808,VALID,17.6168,VALID,107,VALID,0.596354,
2005-04-15, 03:22:00,VALID,918.647,VALID,0,VALID,99.9621,VALID,0,VALID,17.6237,VALID,117,VALID,0.65625,
2005-04-15, 03:23:00,VALID,918.654,VALID,0,VALID,99.9977,VALID,-0.0339617,VALID,17.624,VALID,136,VALID,0.734933,
2005-04-15, 03:24:00,VALID,918.646,VALID,0,VALID,100,VALID,0,VALID,17.6141,VALID,122,VALID,1.11191,
2005-04-15, 03:25:00,VALID,918.631,VALID,0,VALID,100,VALID,-0.0339617,VALID,17.6203,VALID,136,VALID,1.12351,
2005-04-15, 03:26:00,VALID,918.621,VALID,0,VALID,99.9647,VALID,-0.0169808,VALID,17.6334,VALID,121,VALID,0.810501,
2005-04-15, 03:27:00,VALID,918.59,VALID,0,VALID,99.8795,VALID,0,VALID,17.6334,VALID,113,VALID,1.25316,
2005-04-15, 03:28:00,VALID,918.564,VALID,0,VALID,99.7332,VALID,0,VALID,17.6459,VALID,100,VALID,1.19815,
2005-04-15, 03:29:00,VALID,918.565,VALID,0,VALID,99.6518,VALID,0,VALID,17.6625,VALID,98,VALID,1.17188,
2005-04-15, 03:30:00,VALID,918.539,VALID,0,VALID,99.6277,VALID,-0.0169808,VALID,17.6691,VALID,105,VALID,1.25636,
2005-04-15, 03:31:00,VALID,918.533,VALID,0,VALID,99.5056,VALID,-0.0339617,VALID,17.7012,VALID,96,VALID,1.36719,
2005-04-15, 03:32:00,VALID,918.509,VALID,0,VALID,99.3187,VALID,-0.0169808,VALID,17.7176,VALID,89,VALID,1.28735,
2005-04-15, 03:33:00,VALID,918.489,VALID,0,VALID,99.1953,VALID,0,VALID,17.7268,VALID,93,VALID,1.40197,
2005-04-15, 03:34:00,VALID,918.479,VALID,0,VALID,99.1279,VALID,-0.0169808,VALID,17.73,VALID,96,VALID,1.71336,
2005-04-15, 03:35:00,VALID,918.45,VALID,0,VALID,99.0974,VALID,0,VALID,17.7302,VALID,96,VALID,1.37607,
2005-04-15, 03:36:00,VALID,918.428,VALID,0,VALID,99.1228,VALID,0,VALID,17.7171,VALID,98,VALID,1.49115,